Погода в Шеффервилле

Канада     54°48′10″N   66°49′04″W
темп.,
°C
ветер,
м/с
пор.,
м/с
влажн.,
%
обл.,
%
осадки,
мм/ч
давл.,
гПа
погр.,
м
27 сентября, пн
пн2723:00+11вюв91695100 0.4 1002567
02:00+12вюв111893100 4.0 9981072
05:00+11вюв142293100 7.0 9941204
08:00+9вюв122095100 11.1 993922
11:00+10вюв101696100 1.9 991786
14:00+9юз6890100 3.0 993553
17:00+6зюз81091100 0.3 996713
20:00+6з61083100 0.3 999868
28 сентября, вт
вт2823:00+6з4884100 0.1 1000433
02:00+5з4785100 0.1 1001340
05:00+5з2585100 0.0 1002249
08:00+5зсз3583100 0.0 1003395
11:00+5зсз4479100 0.1 1004688
14:00+6сз4473100 0.3 1004846
17:00+4с3494100 0.3 1006655
20:00+3с5692100 0.4 1009395
29 сентября, ср
ср2923:00+3ссв459297 0.0 1011459
02:00+2с4495100 0.1 1013415
05:00+2с4597100 0.0 1016443
08:00+3св4697100 0.1 1018480
11:00+4св4696100 0.1 1021493
14:00+4св4592100 0.1 1022503
17:00+6св247849 0.0 1023599
20:00+3ссв468910 0.0 102693
30 сентября, чт
чт3023:00+2с229281 0.0 102720
02:00+3с2390100 0.0 102773
05:00+3с3591100 0.1 1028161
08:00+3с3585100 0.1 1029204
11:00+6ссв446041 0.0 10291003
14:00+7св44525 0.0 10271063
17:00+7св45535 0.0 10281056
20:00+4всв466685 0.0 102994
1 октября, пт
пт123:00+2в237154 0.0 103034
02:000св22745 0.0 103113
05:000ссв227827 0.0 103210
08:00+2ссв36650 0.0 1032325
11:00+6св574325 0.0 1031653
14:00+8св673470 0.0 1030823
17:00+8св58380 0.0 1030221
20:00+4ссв34565 0.0 103248